,,,PA_Meas_PMT16A,,PR_Meas_QMR101_102,,RH_Meas_QMH101,,SR_Meas_QMS101,,TA_Meas_QMH101,,GenWind,,GenWind,
date,time,status,PA,status,PR,status,RH,status,SR,status,TA,status,DirAvg,status,SpdAvg,
2010-05-10, 00:00:04,VALID,1001.62,VALID,0,VALID,87.2591,VALID,0,VALID,26.0985,VALID,78,VALID,1.75898,
2010-05-10, 00:01:04,VALID,1001.62,VALID,0,VALID,87.8542,VALID,0,VALID,26.0791,VALID,99,VALID,1.98047,
2010-05-10, 00:02:04,VALID,1001.63,VALID,0,VALID,88.3958,VALID,0,VALID,26.0012,VALID,91,VALID,1.84141,
2010-05-10, 00:03:04,VALID,1001.58,VALID,0,VALID,88.8688,VALID,0,VALID,25.9427,VALID,87,VALID,2.16445,
2010-05-10, 00:04:04,VALID,1001.58,VALID,0,VALID,89.3647,VALID,0,VALID,25.8843,VALID,71,VALID,1.6582,
2010-05-10, 00:05:04,VALID,1001.6,VALID,0,VALID,90.0437,VALID,0,VALID,25.8259,VALID,100,VALID,1.22578,
2010-05-10, 00:06:04,VALID,1001.57,VALID,0,VALID,91.0659,VALID,0,VALID,25.7655,VALID,48,VALID,1.1332,
2010-05-10, 00:07:04,VALID,1001.55,VALID,0,VALID,92.0043,VALID,0,VALID,25.7285,VALID,69,VALID,1.69531,
2010-05-10, 00:08:04,VALID,1001.53,VALID,0,VALID,92.6222,VALID,0,VALID,25.67,VALID,71,VALID,0.963672,
2010-05-10, 00:09:04,VALID,1001.5,VALID,0,VALID,92.401,VALID,0,VALID,25.6506,VALID,62,VALID,1.28828,
2010-05-10, 00:10:04,VALID,1001.49,VALID,0,VALID,92.3705,VALID,0,VALID,25.6311,VALID,98,VALID,0.698828,
2010-05-10, 00:11:04,VALID,1001.45,VALID,0,VALID,92.5307,VALID,0,VALID,25.6116,VALID,104,VALID,1.85898,
2010-05-10, 00:12:04,VALID,1001.44,VALID,0,VALID,92.1645,VALID,0,VALID,25.5921,VALID,99,VALID,1.30977,
2010-05-10, 00:13:04,VALID,1001.39,VALID,0,VALID,91.1956,VALID,0,VALID,25.5921,VALID,100,VALID,1.87773,
2010-05-10, 00:14:04,VALID,1001.39,VALID,0,VALID,90.5319,VALID,0,VALID,25.5902,VALID,97,VALID,2.20664,
2010-05-10, 00:15:04,VALID,1001.37,VALID,0,VALID,90.3565,VALID,0,VALID,25.5921,VALID,102,VALID,1.24414,
2010-05-10, 00:16:04,VALID,1001.36,VALID,0,VALID,90.3488,VALID,0,VALID,25.5902,VALID,97,VALID,1.69531,
2010-05-10, 00:17:04,VALID,1001.33,VALID,0,VALID,90.6006,VALID,0,VALID,25.5707,VALID,79,VALID,0.639453,
2010-05-10, 00:18:04,VALID,1001.32,VALID,0,VALID,90.654,VALID,0,VALID,25.5513,VALID,93,VALID,1.7832,
2010-05-10, 00:19:04,VALID,1001.35,VALID,0,VALID,90.715,VALID,0,VALID,25.5318,VALID,80,VALID,1.46172,
2010-05-10, 00:20:04,VALID,1001.36,VALID,0,VALID,90.7455,VALID,0,VALID,25.5337,VALID,94,VALID,1.21484,
2010-05-10, 00:21:04,VALID,1001.34,VALID,0,VALID,90.8447,VALID,0,VALID,25.5532,VALID,67,VALID,0.851953,
2010-05-10, 00:22:04,VALID,1001.32,VALID,0,VALID,90.4785,VALID,0,VALID,25.5337,VALID,111,VALID,1.5,
2010-05-10, 00:23:04,VALID,1001.31,VALID,0,VALID,90.448,VALID,0,VALID,25.5337,VALID,78,VALID,0.728125,
2010-05-10, 00:24:04,VALID,1001.33,VALID,0,VALID,90.5777,VALID,0,VALID,25.5337,VALID,99,VALID,0.894141,
2010-05-10, 00:25:04,VALID,1001.34,VALID,0,VALID,90.1657,VALID,0,VALID,25.4734,VALID,80,VALID,1.5668,
2010-05-10, 00:26:04,VALID,1001.34,VALID,0,VALID,89.9064,VALID,0,VALID,25.4928,VALID,81,VALID,1.45664,
2010-05-10, 00:27:04,VALID,1001.32,VALID,0,VALID,89.9903,VALID,0,VALID,25.5123,VALID,96,VALID,1.58359,
2010-05-10, 00:28:04,VALID,1001.33,VALID,0,VALID,90.1657,VALID,0,VALID,25.4928,VALID,78,VALID,0.530859,
2010-05-10, 00:29:04,VALID,1001.32,VALID,0,VALID,90.2268,VALID,0,VALID,25.4948,VALID,84,VALID,0.481641,
2010-05-10, 00:30:04,VALID,1001.3,VALID,0,VALID,90.2268,VALID,0,VALID,25.4948,VALID,27,VALID,1.19023,
2010-05-10, 00:31:04,VALID,1001.29,VALID,0,VALID,90.1429,VALID,0,VALID,25.4948,VALID,72,VALID,0.667969,
2010-05-10, 00:32:04,VALID,1001.27,VALID,0,VALID,89.9216,VALID,0,VALID,25.4948,VALID,83,VALID,0.953516,
2010-05-10, 00:33:04,VALID,1001.24,VALID,0,VALID,89.8911,VALID,0,VALID,25.4753,VALID,48,VALID,1.39922,
2010-05-10, 00:34:04,VALID,1001.22,VALID,0,VALID,89.7004,VALID,0,VALID,25.4948,VALID,45,VALID,1.27188,
2010-05-10, 00:35:04,VALID,1001.18,VALID,0,VALID,89.6317,VALID,0,VALID,25.4928,VALID,31,VALID,1.27422,
2010-05-10, 00:36:04,VALID,1001.19,VALID,0,VALID,89.4868,VALID,0,VALID,25.4948,VALID,75,VALID,0.972656,
2010-05-10, 00:37:04,VALID,1001.15,VALID,0,VALID,89.441,VALID,0,VALID,25.4948,VALID,86,VALID,0.973828,
2010-05-10, 00:38:04,VALID,1001.14,VALID,0,VALID,89.5325,VALID,0,VALID,25.4928,VALID,69,VALID,1.01094,
2010-05-10, 00:39:04,VALID,1001.12,VALID,0,VALID,89.3418,VALID,0,VALID,25.4928,VALID,45,VALID,0.825,
2010-05-10, 00:40:04,VALID,1001.12,VALID,0,VALID,89.5936,VALID,0,VALID,25.4948,VALID,73,VALID,1.22539,
2010-05-10, 00:41:04,VALID,1001.13,VALID,0,VALID,89.975,VALID,0,VALID,25.4539,VALID,91,VALID,1.06719,
2010-05-10, 00:42:04,VALID,1001.13,VALID,0,VALID,90.1123,VALID,0,VALID,25.4344,VALID,81,VALID,0.992578,
2010-05-10, 00:43:04,VALID,1001.1,VALID,0,VALID,90.4404,VALID,0,VALID,25.4169,VALID,38,VALID,0.452734,
2010-05-10, 00:44:04,VALID,1001.09,VALID,0,VALID,90.9286,VALID,0,VALID,25.376,VALID,94,VALID,1.21211,
2010-05-10, 00:45:04,VALID,1001.07,VALID,0,VALID,91.5771,VALID,0,VALID,25.3974,VALID,57,VALID,0.725,
2010-05-10, 00:46:04,VALID,1001.1,VALID,0,VALID,92.2408,VALID,0,VALID,25.337,VALID,102,VALID,1.51758,
2010-05-10, 00:47:04,VALID,1001.08,VALID,0,VALID,92.6222,VALID,0,VALID,25.337,VALID,85,VALID,1.24531,
2010-05-10, 00:48:04,VALID,1001.11,VALID,0,VALID,93.0266,VALID,0,VALID,25.3176,VALID,85,VALID,0.802344,
2010-05-10, 00:49:04,VALID,1001.12,VALID,0,VALID,93.4462,VALID,0,VALID,25.3195,VALID,75,VALID,1.02344,
2010-05-10, 00:50:04,VALID,1001.13,VALID,0,VALID,93.6979,VALID,0,VALID,25.3,VALID,81,VALID,0.983594,
2010-05-10, 00:51:04,VALID,1001.1,VALID,0,VALID,93.9268,VALID,0,VALID,25.2806,VALID,91,VALID,1.96094,
2010-05-10, 00:52:04,VALID,1001.12,VALID,0,VALID,94.1251,VALID,0,VALID,25.2416,VALID,57,VALID,0.525781,
2010-05-10, 00:53:04,VALID,1001.13,VALID,0,VALID,94.293,VALID,0,VALID,25.2435,VALID,86,VALID,1.2668,
2010-05-10, 00:54:04,VALID,1001.13,VALID,0,VALID,94.4303,VALID,0,VALID,25.1813,VALID,92,VALID,0.739453,
2010-05-10, 00:55:04,VALID,1001.15,VALID,0,VALID,94.5752,VALID,0,VALID,25.1832,VALID,85,VALID,0.765234,
2010-05-10, 00:56:04,VALID,1001.15,VALID,0,VALID,94.7202,VALID,0,VALID,25.1423,VALID,107,VALID,0.676562,
2010-05-10, 00:57:04,VALID,1001.15,VALID,0,VALID,94.8117,VALID,0,VALID,25.1442,VALID,69,VALID,1.11563,
2010-05-10, 00:58:04,VALID,1001.14,VALID,0.5,VALID,94.8575,VALID,0,VALID,25.1442,VALID,63,VALID,0.850391,
2010-05-10, 00:59:04,VALID,1001.11,VALID,0,VALID,94.888,VALID,0,VALID,25.1229,VALID,92,VALID,1.37109,
2010-05-10, 01:00:04,VALID,1001.11,VALID,0,VALID,94.8651,VALID,0,VALID,25.1442,VALID,64,VALID,0.963281,
2010-05-10, 01:01:04,VALID,1001.1,VALID,0,VALID,94.8346,VALID,0,VALID,25.1442,VALID,72,VALID,1.29648,
2010-05-10, 01:02:04,VALID,1001.13,VALID,0,VALID,94.8194,VALID,0,VALID,25.1053,VALID,51,VALID,0.689844,
2010-05-10, 01:03:04,VALID,1001.11,VALID,0,VALID,94.8651,VALID,0,VALID,25.1248,VALID,74,VALID,0.475,
2010-05-10, 01:04:04,VALID,1001.11,VALID,0,VALID,94.888,VALID,0,VALID,25.1053,VALID,16,VALID,1.20898,
2010-05-10, 01:05:04,VALID,1001.12,VALID,0,VALID,94.9185,VALID,0,VALID,25.0839,VALID,38,VALID,1.25508,
2010-05-10, 01:06:04,VALID,1001.09,VALID,0,VALID,94.9262,VALID,0,VALID,25.0839,VALID,72,VALID,0.875391,
2010-05-10, 01:07:04,VALID,1001.08,VALID,0,VALID,94.9262,VALID,0,VALID,25.1053,VALID,19,VALID,1.00117,
2010-05-10, 01:08:04,VALID,1001.11,VALID,0,VALID,94.9262,VALID,0,VALID,25.1034,VALID,81,VALID,1.39883,
2010-05-10, 01:09:04,VALID,1001.13,VALID,0,VALID,94.9338,VALID,0,VALID,25.0839,VALID,53,VALID,1.55273,
2010-05-10, 01:10:04,VALID,1001.15,VALID,0,VALID,94.9948,VALID,0.100563,VALID,25.0839,VALID,52,VALID,1.23672,
2010-05-10, 01:11:04,VALID,1001.2,VALID,0,VALID,95.0253,VALID,0,VALID,25.0663,VALID,74,VALID,1.36602,
2010-05-10, 01:12:04,VALID,1001.19,VALID,0,VALID,95.0406,VALID,0,VALID,25.045,VALID,25,VALID,0.858984,
2010-05-10, 01:13:04,VALID,1001.16,VALID,0,VALID,95.1245,VALID,0.100563,VALID,25.006,VALID,83,VALID,1.20781,
2010-05-10, 01:14:04,VALID,1001.15,VALID,0,VALID,95.1245,VALID,0,VALID,24.9866,VALID,44,VALID,0.631641,
2010-05-10, 01:15:04,VALID,1001.12,VALID,0,VALID,95.2084,VALID,0,VALID,25.0079,VALID,79,VALID,1.12227,
2010-05-10, 01:16:04,VALID,1001.08,VALID,0.5,VALID,95.2008,VALID,0,VALID,25.0098,VALID,74,VALID,1.26172,
2010-05-10, 01:17:04,VALID,1001.06,VALID,0,VALID,95.2313,VALID,0,VALID,25.006,VALID,91,VALID,1.89805,
2010-05-10, 01:18:04,VALID,1001.07,VALID,0,VALID,95.1627,VALID,0,VALID,25.0274,VALID,19,VALID,1.09375,
2010-05-10, 01:19:04,VALID,1001.06,VALID,0,VALID,95.1474,VALID,0,VALID,25.0255,VALID,84,VALID,0.546094,
2010-05-10, 01:20:04,VALID,1001.05,VALID,0,VALID,95.1703,VALID,0,VALID,25.0255,VALID,58,VALID,0.835547,
2010-05-10, 01:21:04,VALID,1001.02,VALID,0,VALID,95.1932,VALID,0,VALID,25.006,VALID,97,VALID,0.786719,
2010-05-10, 01:22:04,VALID,1001.04,VALID,0,VALID,95.2084,VALID,0,VALID,25.0079,VALID,24,VALID,0.926562,
2010-05-10, 01:23:04,VALID,1001.04,VALID,0,VALID,95.2618,VALID,0,VALID,25.0079,VALID,79,VALID,0.792969,
2010-05-10, 01:24:04,VALID,1001,VALID,0,VALID,95.3381,VALID,0,VALID,25.0079,VALID,71,VALID,1.06289,
2010-05-10, 01:25:04,VALID,1000.99,VALID,0,VALID,95.4068,VALID,0,VALID,24.9885,VALID,56,VALID,1.09492,
2010-05-10, 01:26:04,VALID,1000.96,VALID,0,VALID,95.4297,VALID,0,VALID,24.9885,VALID,18,VALID,1.76641,
2010-05-10, 01:27:04,VALID,1000.97,VALID,0,VALID,95.4526,VALID,0,VALID,25.0293,VALID,59,VALID,1.68164,
2010-05-10, 01:28:04,VALID,1000.99,VALID,0,VALID,95.4602,VALID,0,VALID,24.9885,VALID,36,VALID,1.23828,
2010-05-10, 01:29:04,VALID,1000.98,VALID,0,VALID,95.4831,VALID,0,VALID,24.969,VALID,75,VALID,1.425,
2010-05-10, 01:30:04,VALID,1000.95,VALID,0,VALID,95.4449,VALID,0,VALID,24.9885,VALID,41,VALID,1.53789,
2010-05-10, 01:31:04,VALID,1000.92,VALID,0,VALID,95.4297,VALID,0,VALID,24.9885,VALID,13,VALID,1.50586,
2010-05-10, 01:32:04,VALID,1000.9,VALID,0,VALID,95.3534,VALID,0,VALID,24.9671,VALID,99,VALID,1.02227,
2010-05-10, 01:33:04,VALID,1000.91,VALID,0,VALID,95.2771,VALID,0,VALID,24.9885,VALID,34,VALID,1.23281,
2010-05-10, 01:34:04,VALID,1000.89,VALID,0.5,VALID,95.2161,VALID,0,VALID,24.969,VALID,79,VALID,1.02305,
2010-05-10, 01:35:04,VALID,1000.88,VALID,0,VALID,95.1627,VALID,0,VALID,24.9495,VALID,59,VALID,1.5125,
2010-05-10, 01:36:04,VALID,1000.83,VALID,0,VALID,95.0787,VALID,0,VALID,24.9514,VALID,9,VALID,1.91719,
2010-05-10, 01:37:04,VALID,1000.86,VALID,0,VALID,94.9109,VALID,0,VALID,24.93,VALID,50,VALID,0.698828,
2010-05-10, 01:38:04,VALID,1000.86,VALID,0,VALID,94.9033,VALID,0,VALID,24.9495,VALID,77,VALID,0.777734,
2010-05-10, 01:39:04,VALID,1000.83,VALID,0,VALID,94.888,VALID,0,VALID,24.9106,VALID,16,VALID,1.4707,
2010-05-10, 01:40:04,VALID,1000.82,VALID,0,VALID,94.8728,VALID,0,VALID,24.93,VALID,36,VALID,0.879687,
2010-05-10, 01:41:04,VALID,1000.82,VALID,0,VALID,94.9185,VALID,0,VALID,24.9106,VALID,86,VALID,1.42617,
2010-05-10, 01:42:04,VALID,1000.87,VALID,0,VALID,94.8499,VALID,0,VALID,24.93,VALID,53,VALID,1.11484,
2010-05-10, 01:43:04,VALID,1000.82,VALID,0,VALID,94.8728,VALID,0,VALID,24.8892,VALID,61,VALID,1.35977,
2010-05-10, 01:44:04,VALID,1000.82,VALID,0,VALID,94.7888,VALID,0,VALID,24.9106,VALID,82,VALID,1.38984,
2010-05-10, 01:45:04,VALID,1000.77,VALID,0,VALID,94.8346,VALID,0.100563,VALID,24.8892,VALID,54,VALID,1.08594,
2010-05-10, 01:46:04,VALID,1000.74,VALID,0,VALID,94.8422,VALID,0,VALID,24.8679,VALID,12,VALID,1.59258,
2010-05-10, 01:47:04,VALID,1000.72,VALID,0,VALID,94.8575,VALID,0.100563,VALID,24.8892,VALID,27,VALID,1.46875,
2010-05-10, 01:48:04,VALID,1000.72,VALID,0,VALID,94.9033,VALID,0.100563,VALID,24.8697,VALID,40,VALID,0.816016,
2010-05-10, 01:49:04,VALID,1000.73,VALID,0,VALID,94.888,VALID,0.100563,VALID,24.8308,VALID,40,VALID,1.25195,
2010-05-10, 01:50:04,VALID,1000.71,VALID,0,VALID,94.8041,VALID,0,VALID,24.7919,VALID,51,VALID,1.47578,
2010-05-10, 01:51:04,VALID,1000.69,VALID,0,VALID,94.8117,VALID,0,VALID,24.8113,VALID,20,VALID,1.06445,
2010-05-10, 01:52:04,VALID,1000.67,VALID,0.5,VALID,94.8346,VALID,0.100563,VALID,24.7724,VALID,32,VALID,0.762109,
2010-05-10, 01:53:04,VALID,1000.68,VALID,0,VALID,94.9338,VALID,0.100563,VALID,24.7724,VALID,46,VALID,0.741016,
2010-05-10, 01:54:04,VALID,1000.67,VALID,0,VALID,95.033,VALID,0.100563,VALID,24.7335,VALID,48,VALID,0.599609,
2010-05-10, 01:55:04,VALID,1000.67,VALID,0,VALID,95.0711,VALID,0,VALID,24.7159,VALID,15,VALID,0.786328,
2010-05-10, 01:56:04,VALID,1000.65,VALID,0,VALID,95.1169,VALID,0,VALID,24.6964,VALID,22,VALID,0.863281,
2010-05-10, 01:57:04,VALID,1000.63,VALID,0,VALID,95.155,VALID,0,VALID,24.6537,VALID,40,VALID,1.17227,
2010-05-10, 01:58:04,VALID,1000.65,VALID,0,VALID,95.1398,VALID,0.100563,VALID,24.6361,VALID,54,VALID,0.707422,
2010-05-10, 01:59:04,VALID,1000.62,VALID,0,VALID,95.1474,VALID,0.100563,VALID,24.6361,VALID,28,VALID,1.55039,
2010-05-10, 02:00:04,VALID,1000.61,VALID,0,VALID,94.8956,VALID,0,VALID,24.6361,VALID,48,VALID,1.27578,
2010-05-10, 02:01:04,VALID,1000.6,VALID,0.5,VALID,94.7583,VALID,0.100563,VALID,24.675,VALID,56,VALID,0.764844,
2010-05-10, 02:02:04,VALID,1000.57,VALID,0,VALID,94.682,VALID,0.100563,VALID,24.675,VALID,74,VALID,1.125,
2010-05-10, 02:03:04,VALID,1000.57,VALID,0,VALID,94.6591,VALID,0,VALID,24.6556,VALID,34,VALID,0.455859,
2010-05-10, 02:04:04,VALID,1000.57,VALID,0,VALID,94.766,VALID,0.100563,VALID,24.6361,VALID,34,VALID,0.918359,
2010-05-10, 02:05:04,VALID,1000.53,VALID,0,VALID,94.9338,VALID,0,VALID,24.638,VALID,48,VALID,0.403125,
2010-05-10, 02:06:04,VALID,1000.54,VALID,0,VALID,95.0787,VALID,0.100563,VALID,24.5564,VALID,84,VALID,1.50781,
2010-05-10, 02:07:04,VALID,1000.52,VALID,0,VALID,95.1627,VALID,0.100563,VALID,24.5564,VALID,100,VALID,0.735937,
2010-05-10, 02:08:04,VALID,1000.53,VALID,0,VALID,95.2847,VALID,0.100563,VALID,24.5777,VALID,37,VALID,0.577344,
2010-05-10, 02:09:04,VALID,1000.55,VALID,0,VALID,95.3915,VALID,0.100563,VALID,24.5388,VALID,76,VALID,1.27539,
2010-05-10, 02:10:04,VALID,1000.54,VALID,0,VALID,95.4907,VALID,0.100563,VALID,24.498,VALID,73,VALID,0.729297,
2010-05-10, 02:11:04,VALID,1000.55,VALID,0,VALID,95.5822,VALID,0.100563,VALID,24.5193,VALID,88,VALID,0.698438,
2010-05-10, 02:12:04,VALID,1000.53,VALID,0,VALID,95.6585,VALID,0.100563,VALID,24.5193,VALID,23,VALID,0.859375,
2010-05-10, 02:13:04,VALID,1000.56,VALID,0,VALID,95.7424,VALID,0.100563,VALID,24.5193,VALID,99,VALID,0.671484,
2010-05-10, 02:14:04,VALID,1000.54,VALID,0,VALID,95.7959,VALID,0.100563,VALID,24.498,VALID,71,VALID,0.345703,
2010-05-10, 02:15:04,VALID,1000.53,VALID,0,VALID,95.8264,VALID,0,VALID,24.5212,VALID,74,VALID,0.921875,
2010-05-10, 02:16:04,VALID,1000.54,VALID,0,VALID,95.8645,VALID,0.100563,VALID,24.5212,VALID,61,VALID,0.571484,
2010-05-10, 02:17:04,VALID,1000.54,VALID,0,VALID,95.9027,VALID,0.100563,VALID,24.4998,VALID,88,VALID,0.539844,
2010-05-10, 02:18:04,VALID,1000.5,VALID,0.5,VALID,95.9179,VALID,0.100563,VALID,24.4998,VALID,74,VALID,0.238672,
2010-05-10, 02:19:04,VALID,1000.47,VALID,0,VALID,95.8874,VALID,0.100563,VALID,24.4804,VALID,39,VALID,0.783984,
2010-05-10, 02:20:04,VALID,1000.44,VALID,0,VALID,95.8569,VALID,0.100563,VALID,24.4609,VALID,80,VALID,1.56172,
2010-05-10, 02:21:04,VALID,1000.44,VALID,0,VALID,95.8187,VALID,0.100563,VALID,24.4804,VALID,58,VALID,0.941797,
2010-05-10, 02:22:04,VALID,1000.41,VALID,0,VALID,95.7806,VALID,0.100563,VALID,24.4609,VALID,38,VALID,0.764063,
2010-05-10, 02:23:04,VALID,1000.38,VALID,0,VALID,95.7501,VALID,0.100563,VALID,24.4609,VALID,20,VALID,0.95,
2010-05-10, 02:24:04,VALID,1000.37,VALID,0,VALID,95.7196,VALID,0.100563,VALID,24.4609,VALID,16,VALID,1.2793,
2010-05-10, 02:25:04,VALID,1000.36,VALID,0,VALID,95.6585,VALID,0,VALID,24.5017,VALID,28,VALID,0.396484,
2010-05-10, 02:26:04,VALID,1000.32,VALID,0,VALID,95.628,VALID,0.100563,VALID,24.4609,VALID,68,VALID,0.628516,
2010-05-10, 02:27:04,VALID,1000.31,VALID,0,VALID,95.628,VALID,0.100563,VALID,24.4998,VALID,47,VALID,1.04453,
2010-05-10, 02:28:04,VALID,1000.25,VALID,0,VALID,95.6433,VALID,0.100563,VALID,24.4998,VALID,54,VALID,0.590625,
2010-05-10, 02:29:04,VALID,1000.28,VALID,0,VALID,95.6814,VALID,0.100563,VALID,24.4998,VALID,68,VALID,0.382422,
2010-05-10, 02:30:04,VALID,1000.24,VALID,0,VALID,95.6967,VALID,0,VALID,24.5193,VALID,38,VALID,1.13516,
2010-05-10, 02:31:04,VALID,1000.28,VALID,0,VALID,95.7424,VALID,0,VALID,24.5388,VALID,86,VALID,0.708594,
2010-05-10, 02:32:04,VALID,1000.29,VALID,0,VALID,95.7501,VALID,0.100563,VALID,24.5388,VALID,55,VALID,1.0375,
2010-05-10, 02:33:04,VALID,1000.27,VALID,0,VALID,95.7501,VALID,0,VALID,24.5582,VALID,33,VALID,0.544531,
2010-05-10, 02:34:04,VALID,1000.31,VALID,0,VALID,95.7501,VALID,0,VALID,24.5796,VALID,48,VALID,0.872656,
2010-05-10, 02:35:04,VALID,1000.34,VALID,0,VALID,95.7272,VALID,0.100563,VALID,24.5174,VALID,85,VALID,0.468359,
2010-05-10, 02:36:04,VALID,1000.32,VALID,0,VALID,95.7196,VALID,0.100563,VALID,24.5388,VALID,82,VALID,0.970703,
2010-05-10, 02:37:04,VALID,1000.36,VALID,0,VALID,95.6967,VALID,0.100563,VALID,24.5193,VALID,95,VALID,1.72969,
2010-05-10, 02:38:04,VALID,1000.32,VALID,0,VALID,95.6509,VALID,0.100563,VALID,24.5174,VALID,101,VALID,0.827344,
2010-05-10, 02:39:04,VALID,1000.32,VALID,0,VALID,95.6051,VALID,0.100563,VALID,24.5582,VALID,81,VALID,0.937891,
2010-05-10, 02:40:04,VALID,1000.38,VALID,0,VALID,95.5594,VALID,0.100563,VALID,24.5564,VALID,85,VALID,0.625,
2010-05-10, 02:41:04,VALID,1000.38,VALID,0,VALID,95.5594,VALID,0.100563,VALID,24.599,VALID,100,VALID,0.848047,
2010-05-10, 02:42:04,VALID,1000.42,VALID,0,VALID,95.5441,VALID,0,VALID,24.5972,VALID,95,VALID,0.509766,
2010-05-10, 02:43:04,VALID,1000.46,VALID,0,VALID,95.506,VALID,0,VALID,24.5972,VALID,119,VALID,1.56836,
2010-05-10, 02:44:04,VALID,1000.48,VALID,0,VALID,95.4831,VALID,0.100563,VALID,24.6556,VALID,116,VALID,1.43906,
2010-05-10, 02:45:04,VALID,1000.53,VALID,0,VALID,95.3991,VALID,0,VALID,24.6964,VALID,116,VALID,1.13437,
2010-05-10, 02:46:04,VALID,1000.52,VALID,0,VALID,95.3534,VALID,0,VALID,24.7353,VALID,108,VALID,1.97773,
2010-05-10, 02:47:04,VALID,1000.57,VALID,0,VALID,95.2542,VALID,0,VALID,24.7937,VALID,97,VALID,1.49414,
2010-05-10, 02:48:04,VALID,1000.61,VALID,0,VALID,95.1016,VALID,0,VALID,24.8522,VALID,97,VALID,1.24727,
2010-05-10, 02:49:04,VALID,1000.61,VALID,0,VALID,95.033,VALID,0,VALID,24.8716,VALID,73,VALID,1.64414,
2010-05-10, 02:50:04,VALID,1000.63,VALID,0,VALID,94.9948,VALID,0,VALID,24.8911,VALID,118,VALID,0.782422,
2010-05-10, 02:51:04,VALID,1000.64,VALID,0,VALID,95.0101,VALID,0,VALID,24.93,VALID,90,VALID,1.81094,
2010-05-10, 02:52:04,VALID,1000.65,VALID,0,VALID,95.0177,VALID,0,VALID,24.969,VALID,99,VALID,0.708594,
2010-05-10, 02:53:04,VALID,1000.63,VALID,0,VALID,95.0177,VALID,0,VALID,24.9885,VALID,106,VALID,0.888672,
2010-05-10, 02:54:04,VALID,1000.6,VALID,0,VALID,95.0635,VALID,0,VALID,25.0098,VALID,119,VALID,0.749609,
2010-05-10, 02:55:04,VALID,1000.59,VALID,0,VALID,95.1321,VALID,0,VALID,24.9885,VALID,97,VALID,1.42305,
2010-05-10, 02:56:04,VALID,1000.59,VALID,0,VALID,95.2084,VALID,0,VALID,24.9885,VALID,104,VALID,1.32227,
2010-05-10, 02:57:04,VALID,1000.59,VALID,0,VALID,95.2389,VALID,0,VALID,25.0079,VALID,89,VALID,0.830078,
2010-05-10, 02:58:04,VALID,1000.59,VALID,0,VALID,95.2923,VALID,0,VALID,25.0079,VALID,88,VALID,0.833984,
2010-05-10, 02:59:04,VALID,1000.57,VALID,0,VALID,95.3,VALID,0,VALID,25.0274,VALID,105,VALID,1.26172,
2010-05-10, 03:00:04,VALID,1000.57,VALID,0,VALID,95.3229,VALID,0,VALID,25.0274,VALID,86,VALID,1.14297,
2010-05-10, 03:01:04,VALID,1000.57,VALID,0,VALID,95.3,VALID,0,VALID,25.0079,VALID,91,VALID,0.745703,
2010-05-10, 03:02:04,VALID,1000.57,VALID,0,VALID,95.3076,VALID,0,VALID,25.0079,VALID,46,VALID,0.989453,
2010-05-10, 03:03:04,VALID,1000.55,VALID,0,VALID,95.2847,VALID,0,VALID,24.9885,VALID,50,VALID,0.562891,
2010-05-10, 03:04:04,VALID,1000.56,VALID,0,VALID,95.3,VALID,0,VALID,25.0098,VALID,69,VALID,0.690234,
2010-05-10, 03:05:04,VALID,1000.53,VALID,0,VALID,95.3076,VALID,0,VALID,24.9885,VALID,86,VALID,0.541406,
2010-05-10, 03:06:04,VALID,1000.55,VALID,0,VALID,95.3457,VALID,0,VALID,24.9885,VALID,103,VALID,0.712109,
2010-05-10, 03:07:04,VALID,1000.53,VALID,0,VALID,95.3839,VALID,0,VALID,24.9885,VALID,77,VALID,0.988281,
2010-05-10, 03:08:04,VALID,1000.49,VALID,0,VALID,95.4297,VALID,0,VALID,25.0079,VALID,82,VALID,0.419141,
2010-05-10, 03:09:04,VALID,1000.49,VALID,0,VALID,95.4907,VALID,0.100563,VALID,25.0079,VALID,59,VALID,0.829687,
2010-05-10, 03:10:04,VALID,1000.49,VALID,0,VALID,95.5746,VALID,0,VALID,25.0274,VALID,112,VALID,0.937891,
2010-05-10, 03:11:04,VALID,1000.45,VALID,0.5,VALID,95.6662,VALID,0,VALID,25.0274,VALID,108,VALID,0.779297,
2010-05-10, 03:12:04,VALID,1000.42,VALID,0,VALID,95.7424,VALID,0,VALID,25.0469,VALID,87,VALID,0.185156,
2010-05-10, 03:13:04,VALID,1000.41,VALID,0,VALID,95.7882,VALID,0,VALID,25.0663,VALID,96,VALID,1.45703,
2010-05-10, 03:14:04,VALID,1000.4,VALID,0,VALID,95.834,VALID,0,VALID,25.1267,VALID,128,VALID,0.854688,
2010-05-10, 03:15:04,VALID,1000.39,VALID,0,VALID,95.8569,VALID,0,VALID,25.1248,VALID,126,VALID,0.783203,
2010-05-10, 03:16:04,VALID,1000.39,VALID,0,VALID,95.834,VALID,0,VALID,25.1637,VALID,134,VALID,1.29609,
2010-05-10, 03:17:04,VALID,1000.38,VALID,0,VALID,95.8111,VALID,0,VALID,25.2027,VALID,126,VALID,1.45039,
2010-05-10, 03:18:04,VALID,1000.39,VALID,0,VALID,95.7272,VALID,0,VALID,25.2221,VALID,116,VALID,1.1625,
2010-05-10, 03:19:04,VALID,1000.37,VALID,0,VALID,95.6356,VALID,0,VALID,25.2435,VALID,148,VALID,0.793359,
2010-05-10, 03:20:04,VALID,1000.38,VALID,0,VALID,95.6204,VALID,0,VALID,25.2416,VALID,132,VALID,0.953516,
2010-05-10, 03:21:04,VALID,1000.43,VALID,0,VALID,95.6128,VALID,0,VALID,25.2221,VALID,125,VALID,0.528516,
2010-05-10, 03:22:04,VALID,1000.38,VALID,0,VALID,95.6128,VALID,0,VALID,25.1832,VALID,147,VALID,0.909766,
2010-05-10, 03:23:04,VALID,1000.4,VALID,0,VALID,95.6509,VALID,0,VALID,25.1637,VALID,147,VALID,0.700781,
2010-05-10, 03:24:04,VALID,1000.38,VALID,0,VALID,95.689,VALID,0,VALID,25.1637,VALID,147,VALID,0.695703,
2010-05-10, 03:25:04,VALID,1000.41,VALID,0,VALID,95.7577,VALID,0,VALID,25.1656,VALID,147,VALID,0.630859,
2010-05-10, 03:26:04,VALID,1000.41,VALID,0,VALID,95.8187,VALID,0,VALID,25.1248,VALID,158,VALID,0.538281,
2010-05-10, 03:27:04,VALID,1000.4,VALID,0,VALID,95.8798,VALID,0,VALID,25.1053,VALID,151,VALID,0.576172,
2010-05-10, 03:28:04,VALID,1000.38,VALID,0,VALID,95.9561,VALID,0,VALID,25.0858,VALID,151,VALID,0.530469,
2010-05-10, 03:29:04,VALID,1000.38,VALID,0,VALID,96.0095,VALID,0,VALID,25.0858,VALID,151,VALID,0.610547,
2010-05-10, 03:30:04,VALID,1000.38,VALID,0,VALID,96.0552,VALID,0,VALID,25.0858,VALID,151,VALID,0.497266,
2010-05-10, 03:31:04,VALID,1000.34,VALID,0.5,VALID,96.0934,VALID,0,VALID,25.0877,VALID,151,VALID,0.729688,
2010-05-10, 03:32:04,VALID,1000.31,VALID,0,VALID,96.162,VALID,0,VALID,25.0469,VALID,151,VALID,0.387891,
2010-05-10, 03:33:04,VALID,1000.28,VALID,0,VALID,96.2078,VALID,0,VALID,25.0469,VALID,151,VALID,0.417578,
2010-05-10, 03:34:04,VALID,1000.28,VALID,0,VALID,96.2383,VALID,0,VALID,25.0469,VALID,151,VALID,0.332812,
2010-05-10, 03:35:04,VALID,1000.27,VALID,0,VALID,96.2765,VALID,0,VALID,25.0255,VALID,151,VALID,0.471094,
2010-05-10, 03:36:04,VALID,1000.24,VALID,0,VALID,96.3146,VALID,0,VALID,25.006,VALID,151,VALID,0.462109,
2010-05-10, 03:37:04,VALID,1000.22,VALID,0,VALID,96.3604,VALID,0,VALID,25.0469,VALID,151,VALID,0.479688,
2010-05-10, 03:38:04,VALID,1000.23,VALID,0,VALID,96.3909,VALID,0,VALID,25.0274,VALID,151,VALID,0.326172,
2010-05-10, 03:39:04,VALID,1000.2,VALID,0,VALID,96.4214,VALID,0,VALID,25.0488,VALID,151,VALID,0.471094,
2010-05-10, 03:40:04,VALID,1000.21,VALID,0,VALID,96.4519,VALID,0,VALID,25.0274,VALID,151,VALID,0.247266,
2010-05-10, 03:41:04,VALID,1000.2,VALID,0,VALID,96.4519,VALID,0,VALID,25.0274,VALID,128,VALID,0.412891,
2010-05-10, 03:42:04,VALID,1000.2,VALID,0,VALID,96.4825,VALID,0,VALID,25.0079,VALID,124,VALID,0.210938,
2010-05-10, 03:43:04,VALID,1000.19,VALID,0,VALID,96.4977,VALID,0,VALID,24.969,VALID,124,VALID,0.0273438,
2010-05-10, 03:44:04,VALID,1000.2,VALID,0,VALID,96.513,VALID,0,VALID,24.9495,VALID,124,VALID,0.0679687,